MB7UKB-10 Weather Reports


time (UTC)temp
F
wind
direction
speed
knots
gust
knots
rain 1hr
in
rain 24hr
in
rain mn
in
humidity
%
barometer
mb
20260505222009 53 265 1.7 3.5 0.00 0.00 0.00 68 1013.2
20260505215008 54 245 1.7 4.3 0.00 0.00 0.00 66 1012.9
20260505212008 54 337 2.6 3.5 0.00 0.00 0.00 65 1012.7
20260505205008 55 153 2.6 4.3 0.00 0.00 0.00 69 1012.8
20260505202008 56 315 0.9 3.5 0.00 0.00 0.00 66 1012.4
20260505195008 57 231 0.9 2.6 0.00 0.00 0.00 64 1012.1
20260505192008 57 61 1.7 1.7 0.00 0.00 0.00 62 1011.8
20260505185008 58 117 0.0 2.6 0.00 0.00 0.00 61 1011.9
20260505182008 59 136 0.0 2.6 0.00 0.00 0.00 59 1011.7
20260505175009 60 134 1.7 3.5 0.00 0.00 0.00 57 1011.6
20260505172008 60 224 1.7 3.5 0.00 0.00 0.00 55 1011.8
20260505165008 60 265 2.6 2.6 0.00 0.00 0.00 56 1011.9
20260505162008 60 224 0.0 2.6 0.00 0.00 0.00 58 1011.8
20260505152009 60 291 0.0 3.5 0.00 0.00 0.00 57 1012.0
20260505125009 61 30 0.0 1.7 0.00 0.00 0.00 53 1012.5
20260505122009 61 163 1.7 2.6 0.00 0.00 0.00 53 1012.5
20260505115008 62 146 0.0 2.6 0.00 0.00 0.00 54 1012.7
20260505112009 60 117 1.7 2.6 0.00 0.00 0.00 58 1012.8
20260505102009 57 140 1.7 1.7 0.00 0.00 0.00 67 1013.2
20260505095009 56 293 1.7 2.6 0.00 0.00 0.00 69 1013.3
20260505092008 55 200 1.7 3.5 0.00 0.00 0.00 73 1013.2
20260505085009 55 122 1.7 3.5 0.00 0.00 0.00 74 1013.5
20260505082009 54 150 0.0 2.6 0.00 0.00 0.00 80 1013.5
20260505075008 53 162 0.0 1.7 0.00 0.00 0.00 81 1013.5
20260505065008 53 96 0.9 2.6 0.00 0.00 0.00 83 1013.9
20260505062008 51 146 0.9 1.7 0.00 0.00 0.00 85 1013.7
20260505055008 51 196 1.7 1.7 0.00 0.00 0.00 86 1013.8
20260505052009 51 153 1.7 1.7 0.00 0.00 0.00 86 1013.8
20260505035008 50 218 0.0 0.9 0.00 0.00 0.00 86 1014.0
20260505032008 50 9 0.0 0.9 0.00 0.00 0.00 86 1014.0
20260505025008 50 297 0.0 0.9 0.00 0.00 0.00 86 1013.9
20260505022009 50 89 0.0 1.7 0.00 0.00 0.00 87 1013.8
20260505015008 51 129 0.0 0.0 0.00 0.00 0.00 84 1014.1
20260505012009 52 143 0.0 1.7 0.00 0.00 0.00 82 1014.4
20260505005009 53 123 0.9 1.7 0.00 0.00 0.00 82 1014.4
20260505002009 53 5 0.9 1.7 0.00 0.00 0.00 81 1014.4
20260504235009 54 246 0.0 2.6 0.00 0.00 0.00 80 1014.6
20260504232009 54 297 0.0 1.7 0.00 0.00 0.00 81 1014.9
20260504225009 54 154 0.0 1.7 0.00 0.00 0.00 81 1014.8